Temp
61 60 59 58 58 58 58 59 58 58 58 59 59 59 59 58 58 57 57 56 56 55 55 54 54 54 53 52 52 51 51 50 48 47 46 46 45 45 44 43 43 42 41 40 40 39 38 38 38 39 40 39 39 38 38 39 39 39 39 39 40 40 39 39 39 39 40 40 41
60 60 59 58 57 58 59 59 58 57 58 59 59 59 59 58 57 57 56 56 55 55 55 54 54 53 52 51 51 51 50 49 48 47 46 45 45 44 43 42 42 42 41 41 40 39 38 37 38 39 40 39 38 38 38 38 39 38 38 38 39 39 39 39 39 39 39 40 40
60 60 60 59 59 59 59 59 58 58 58 59 59 59 58 58 57 57 56 56 56 55 55 55 54 53 52 51 51 50 50 49 48 47 46 45 44 43 42 42 41 41 41 40 39 39 38 37 38 39 39 40 38 37 38 38 38 38 38 38 39 40 40 41 40 39 40 41 40
60 60 59 59 58 58 59 59 58 58 58 59 58 58 58 57 57 57 56 55 55 55 55 55 54 53 52 52 50 49 49 48 47 46 45 44 43 43 42 42 41 40 40 40 39 38 37 36 38 39 39 37 36 37 38 39 37 38 38 38 39 39 40 41 40 40 41 41 40
59 59 59 59 58 58 59 59 58 58 58 59 58 58 57 57 57 56 56 55 55 54 54 54 54 53 52 51 49 48 48 47 45 45 44 43 43 42 41 41 41 40 40 40 39 38 38 37 38 38 38 36 38 38 38 37 36 37 38 39 39 40 40 40 41 41 41 41 40
59 59 59 59 58 58 58 59 58 58 58 58 58 57 56 56 56 55 55 54 54 53 53 52 52 51 51 50 49 48 47 46 45 44 44 44 42 42 41 41 40 40 39 39 39 38 38 37 39 39 38 38 37 37 36 36 36 37 37 38 39 39 40 39 40 40 40 39 39
59 59 59 59 58 58 58 58 58 58 58 58 56 55 55 55 54 54 54 54 53 52 52 51 51 51 50 50 49 47 46 45 44 44 43 43 42 41 41 40 40 39 39 38 38 38 37 37 38 39 38 38 39 38 36 36 36 36 36 37 38 39 39 38 39 39 39 37 37
59 59 59 59 59 58 58 58 58 57 57 57 56 55 54 54 53 53 53 53 53 52 52 51 51 51 50 50 49 47 46 45 44 43 42 42 41 40 40 39 39 39 38 38 38 37 37 37 38 38 37 38 39 38 36 36 36 36 36 36 37 38 38 38 38 38 37 37 37
59 59 58 58 58 57 57 57 57 57 56 56 55 54 53 53 53 52 52 52 52 52 52 51 51 50 49 49 48 47 46 45 44 43 42 41 40 40 39 39 38 38 38 37 37 37 37 37 37 37 37 38 38 37 36 36 36 36 36 36 36 36 36 37 36 36 36 36 37
58 58 57 56 55 55 56 56 56 55 55 55 54 53 52 51 52 52 52 52 52 52 51 51 50 50 49 48 47 46 45 45 44 43 42 41 40 40 39 38 38 38 37 37 36 36 36 36 36 36 35 36 35 36 36 37 36 36 36 36 36 36 35 35 35 35 36 36 36
57 57 57 56 54 55 55 54 54 54 54 54 53 52 52 51 51 52 52 52 52 51 50 51 50 49 48 47 46 45 45 44 43 42 41 40 40 39 39 38 38 38 37 37 36 36 36 36 35 35 35 35 35 35 36 36 36 36 35 35 35 35 35 35 34 35 35 35 35
57 57 57 56 55 55 55 54 54 54 54 53 53 53 52 52 52 52 52 51 50 50 50 50 49 48 48 47 46 44 44 43 42 41 40 40 39 39 38 38 38 38 38 37 36 36 35 35 34 34 34 34 34 34 35 36 35 35 35 35 35 34 34 34 34 34 34 34 35
57 57 56 56 56 55 55 54 54 54 54 53 53 53 53 52 52 52 51 50 49 50 50 49 48 48 47 46 45 44 43 42 41 40 40 39 39 38 38 38 38 38 37 37 36 35 35 35 35 34 34 34 34 34 35 36 35 34 34 34 33 33 33 33 33 33 33 33 34
57 57 56 56 55 55 55 55 55 54 54 53 53 53 53 53 52 51 51 50 50 50 49 48 47 47 46 45 45 44 42 42 41 40 39 39 38 38 38 37 37 37 37 36 36 36 35 35 34 34 34 34 34 34 35 35 34 34 33 32 32 32 33 33 33 33 33 34 33
57 57 56 56 55 55 55 55 55 54 54 53 53 53 53 53 52 51 50 50 50 49 49 48 47 46 45 45 44 43 42 41 41 40 39 38 38 37 37 37 37 37 37 37 36 36 36 35 35 34 34 34 34 34 34 34 33 33 33 33 33 33 33 33 33 33 33 33 32
57 57 56 56 56 55 55 55 55 54 53 53 53 53 53 52 51 50 49 49 49 48 48 47 46 46 45 44 44 43 42 41 40 39 39 38 37 37 36 36 36 36 36 36 36 36 36 35 35 35 35 34 34 33 33 33 33 33 33 33 33 33 32 32 32 32 32 32 31
57 57 57 56 56 55 55 55 54 54 53 53 53 52 51 51 50 49 48 48 48 48 47 46 46 45 44 42 42 42 41 40 39 38 38 37 37 36 36 36 36 36 36 36 35 35 35 35 35 35 35 34 33 33 33 33 33 33 33 33 33 32 32 32 32 32 32 32 31
57 57 57 56 56 55 54 54 54 53 53 52 52 51 50 50 49 48 48 48 48 47 46 45 45 45 44 42 41 40 40 39 38 38 37 37 36 36 36 35 35 35 35 35 35 35 35 35 35 35 34 33 33 33 33 33 32 32 32 32 32 32 32 32 31 31 31 31 31
56 56 56 56 55 55 54 53 53 53 52 52 51 51 50 49 49 48 48 47 47 47 46 45 44 44 43 43 41 40 39 38 38 37 37 36 36 36 35 35 35 35 35 35 35 35 35 36 35 35 34 33 33 32 32 32 31 31 31 31 31 31 31 31 31 31 31 30 30
56 56 56 56 55 55 54 53 52 52 52 52 51 50 49 49 48 48 47 46 46 45 45 45 44 43 43 42 41 40 39 38 38 37 37 36 36 35 35 35 34 34 35 35 35 35 35 34 34 34 33 33 32 31 31 30 30 30 30 30 30 30 30 30 30 30 30 30 30
56 56 56 56 55 54 53 53 52 52 52 51 50 49 49 48 48 47 47 46 45 45 45 44 44 43 43 42 41 40 39 37 37 37 36 36 35 35 35 35 35 34 34 34 34 34 34 33 33 33 32 32 31 31 30 29 29 28 28 29 29 29 29 29 29 29 29 29 30
55 56 56 56 55 54 53 53 52 52 51 50 50 49 48 48 47 47 46 45 45 44 43 43 43 43 42 42 41 40 38 37 37 37 36 35 35 35 34 34 34 33 32 32 31 32 32 32 32 31 31 30 30 29 29 29 27 27 27 27 27 27 28 28 28 28 28 29 29
56 56 56 56 55 53 52 52 52 51 50 49 49 48 48 47 47 46 45 45 44 43 43 42 42 42 42 41 40 39 38 37 37 36 35 35 35 34 34 33 32 31 31 30 29 29 29 30 30 29 29 28 28 28 28 28 27 26 26 25 26 26 26 27 27 27 28 29 30
56 56 56 56 54 53 52 51 51 50 49 49 48 48 47 47 46 46 45 44 44 43 43 43 42 41 41 40 40 39 38 37 36 35 35 34 34 33 32 32 31 30 30 30 31 31 29 28 27 27 26 27 27 27 27 27 26 26 25 25 25 25 25 26 26 27 28 28 29
56 56 55 54 53 52 51 51 50 49 49 48 48 47 47 46 46 45 44 43 43 43 42 42 41 40 40 40 39 39 38 37 36 35 34 34 33 32 32 31 31 30 31 31 35 35 33 31 29 26 25 25 26 26 27 26 26 26 26 26 25 25 24 25 25 26 27 28 28
55 55 54 53 52 51 51 50 49 49 48 48 47 47 46 46 45 45 44 43 43 42 42 41 41 40 39 39 38 37 37 36 35 34 34 33 32 31 31 31 31 31 32 34 36 36 35 34 32 29 26 24 25 25 25 25 26 26 26 26 25 25 24 24 24 25 26 28 28
54 54 53 52 51 51 50 50 49 48 48 47 47 46 46 46 45 44 43 43 43 42 42 41 40 39 38 38 37 36 36 35 35 34 33 32 31 31 30 30 30 31 32 35 35 35 35 35 34 31 28 25 24 24 24 23 25 25 25 25 24 24 24 24 24 24 25 27 27
53 53 52 51 51 50 50 49 49 48 47 47 47 46 46 45 44 44 43 43 42 42 41 41 40 39 38 37 37 36 35 34 34 33 33 31 31 30 29 29 29 30 33 35 35 35 35 34 34 33 30 26 24 24 24 23 23 23 23 23 23 23 23 23 24 24 25 25 25
53 52 52 51 50 49 49 49 48 47 47 47 46 46 45 44 43 43 43 43 42 41 40 39 39 39 38 36 36 36 35 34 34 33 32 31 30 29 29 28 28 30 33 36 35 34 34 34 33 33 32 29 25 22 22 22 22 22 22 22 22 22 22 23 23 23 24 24 24
52 52 51 50 49 49 49 48 48 47 47 47 46 45 44 43 43 43 42 42 41 40 39 39 39 38 37 36 35 35 34 33 33 32 31 30 29 29 28 28 28 30 33 35 34 34 34 33 33 32 32 31 26 23 21 21 21 22 22 22 22 22 22 22 22 23 23 23 23
52 51 50 49 48 48 48 48 47 47 47 46 45 44 43 43 42 42 42 41 40 39 39 38 38 37 36 35 34 34 33 33 32 31 31 30 29 28 27 27 27 29 32 35 34 34 33 33 32 32 32 31 26 23 21 21 21 21 21 21 21 21 21 21 22 22 22 22 23
52 51 50 48 46 46 47 48 47 46 46 45 44 43 43 42 41 41 41 40 40 39 38 38 37 36 35 34 34 33 33 32 31 31 30 30 29 28 27 26 26 28 31 34 34 33 33 32 32 32 31 31 27 23 21 20 20 20 20 20 21 21 21 22 22 22 22 22 22
51 50 49 47 45 45 46 47 46 45 45 44 43 43 42 41 40 40 41 40 39 39 38 37 37 36 35 34 34 33 32 31 31 30 30 29 28 27 26 26 26 29 32 33 33 32 32 32 32 31 31 31 27 23 20 20 20 20 20 20 21 21 21 21 21 21 22 21 21
46 48 48 47 46 45 44 42 41 40 40 39 39 39 40 40 40 40 40 39 38 38 37 37 36 35 35 34 33 32 31 30 30 30 29 29 28 27 26 25 26 30 33 33 32 32 32 31 31 31 31 31 26 22 19 19 19 19 20 20 20 21 21 21 21 21 21 21 21
43 46 47 46 46 44 41 38 38 37 36 36 36 36 38 39 39 39 39 38 38 37 36 36 35 35 34 33 33 32 31 30 30 30 29 28 27 26 25 24 25 29 32 32 32 31 31 31 31 31 30 27 23 20 19 19 19 19 19 19 20 20 20 20 21 21 21 21 21
42 41 41 41 43 42 40 37 37 36 36 35 34 35 36 38 38 39 39 38 37 36 35 34 34 34 33 32 32 31 31 31 30 29 28 28 27 25 24 24 25 28 31 32 31 31 31 31 31 31 29 24 20 18 18 18 18 18 18 18 19 19 19 20 20 21 21 21 21
40 39 38 39 42 41 39 37 37 36 35 34 35 35 36 37 37 38 38 37 36 35 34 34 33 33 32 32 31 30 30 31 30 29 28 27 26 25 24 24 24 27 30 31 31 31 31 31 31 29 26 21 18 17 17 17 17 17 17 17 17 18 18 19 19 20 20 20 21
41 39 39 40 40 39 38 38 37 35 35 35 36 37 37 38 38 37 37 36 35 35 34 33 33 32 31 31 30 30 29 30 29 28 27 27 26 25 24 23 23 25 28 31 31 31 31 31 30 28 25 19 17 16 16 16 16 15 16 16 16 16 17 17 18 18 19 19 23
43 43 42 41 39 38 38 38 36 35 35 36 37 38 38 38 37 37 36 36 35 34 34 33 32 31 31 31 30 29 29 28 28 28 27 26 26 25 25 23 23 25 27 31 31 31 31 30 30 28 25 20 17 16 15 15 15 15 14 15 15 15 16 16 17 17 17 18 24
45 44 43 42 39 38 38 38 36 36 36 37 38 38 38 37 36 36 36 34 34 34 33 33 32 31 31 31 30 29 28 28 28 27 27 26 27 27 26 23 23 24 27 30 31 31 31 30 29 28 25 19 16 15 15 14 14 14 13 13 14 14 14 15 15 16 16 17 21
44 44 43 41 40 39 39 38 37 37 38 38 38 38 37 36 36 35 34 33 33 33 33 33 32 31 31 31 30 29 28 27 27 27 27 27 27 27 26 23 23 23 25 28 30 31 30 30 29 28 25 19 16 15 14 14 13 13 12 12 13 13 13 13 14 15 15 15 16
MSLP
1010.70 1010.94 1011.18 1011.42 1011.74 1012.14 1012.54 1012.82 1013.06 1013.30 1013.50 1013.74 1014.02 1014.26 1014.46 1014.74 1014.94 1015.18 1015.38 1015.58 1015.86 1016.14 1016.46 1016.66 1016.94 1017.18 1017.30 1017.50 1017.66 1017.86 1018.10 1018.30 1018.50 1018.70 1018.90 1019.06 1019.22 1019.38 1019.54 1019.70 1019.82 1019.94 1020.02 1020.10 1020.18 1020.22 1020.30 1020.30 1020.38 1020.42 1020.46 1020.46 1020.50 1020.54 1020.54 1020.54 1020.58 1020.62 1020.66 1020.70 1020.74 1020.70 1020.70 1020.70 1020.66 1020.58 1020.54 1020.46 1020.34
1010.50 1010.70 1010.94 1011.22 1011.50 1011.90 1012.34 1012.70 1012.94 1013.18 1013.42 1013.62 1013.90 1014.14 1014.38 1014.62 1014.90 1015.18 1015.42 1015.66 1015.90 1016.14 1016.42 1016.66 1016.90 1017.10 1017.30 1017.46 1017.62 1017.86 1018.10 1018.30 1018.50 1018.70 1018.90 1019.06 1019.22 1019.38 1019.54 1019.70 1019.78 1019.90 1019.98 1020.02 1020.14 1020.18 1020.26 1020.30 1020.34 1020.38 1020.42 1020.46 1020.50 1020.54 1020.54 1020.54 1020.58 1020.66 1020.74 1020.78 1020.74 1020.66 1020.66 1020.66 1020.62 1020.58 1020.50 1020.46 1020.34
1010.46 1010.66 1010.86 1011.10 1011.42 1011.78 1012.18 1012.54 1012.82 1013.06 1013.30 1013.54 1013.82 1014.10 1014.34 1014.62 1014.90 1015.18 1015.46 1015.70 1015.90 1016.14 1016.38 1016.62 1016.90 1017.06 1017.26 1017.46 1017.62 1017.82 1018.02 1018.26 1018.46 1018.70 1018.90 1019.06 1019.22 1019.38 1019.50 1019.66 1019.78 1019.90 1019.94 1020.02 1020.06 1020.18 1020.22 1020.30 1020.34 1020.38 1020.42 1020.46 1020.58 1020.62 1020.62 1020.58 1020.66 1020.74 1020.78 1020.82 1020.74 1020.70 1020.66 1020.62 1020.58 1020.54 1020.46 1020.42 1020.38
1010.54 1010.74 1010.94 1011.14 1011.34 1011.62 1011.98 1012.34 1012.70 1012.94 1013.18 1013.46 1013.78 1014.06 1014.34 1014.58 1014.90 1015.18 1015.46 1015.70 1015.90 1016.14 1016.34 1016.58 1016.82 1017.02 1017.18 1017.42 1017.66 1017.86 1018.02 1018.18 1018.42 1018.66 1018.90 1019.10 1019.26 1019.42 1019.54 1019.66 1019.78 1019.90 1019.90 1019.98 1020.02 1020.10 1020.18 1020.30 1020.30 1020.38 1020.46 1020.58 1020.66 1020.74 1020.74 1020.74 1020.74 1020.78 1020.82 1020.78 1020.74 1020.70 1020.74 1020.66 1020.58 1020.54 1020.46 1020.46 1020.42
1010.70 1010.86 1011.02 1011.18 1011.38 1011.62 1011.90 1012.26 1012.58 1012.90 1013.14 1013.38 1013.74 1014.06 1014.38 1014.58 1014.90 1015.14 1015.42 1015.70 1015.94 1016.18 1016.34 1016.54 1016.74 1016.98 1017.18 1017.34 1017.62 1017.86 1018.02 1018.22 1018.46 1018.62 1018.86 1019.10 1019.26 1019.42 1019.54 1019.62 1019.74 1019.86 1019.90 1019.94 1020.02 1020.10 1020.18 1020.30 1020.34 1020.46 1020.54 1020.58 1020.62 1020.70 1020.74 1020.74 1020.78 1020.86 1020.82 1020.74 1020.70 1020.70 1020.70 1020.66 1020.58 1020.54 1020.50 1020.46 1020.46
1010.78 1010.94 1011.14 1011.30 1011.46 1011.66 1011.94 1012.30 1012.58 1012.90 1013.14 1013.38 1013.74 1014.10 1014.42 1014.66 1014.90 1015.10 1015.34 1015.62 1015.90 1016.14 1016.30 1016.54 1016.74 1016.90 1017.14 1017.34 1017.58 1017.78 1018.02 1018.26 1018.46 1018.66 1018.90 1019.10 1019.30 1019.46 1019.54 1019.66 1019.74 1019.82 1019.90 1019.98 1020.06 1020.14 1020.22 1020.34 1020.38 1020.46 1020.54 1020.58 1020.62 1020.66 1020.70 1020.74 1020.82 1020.90 1020.90 1020.82 1020.74 1020.74 1020.70 1020.70 1020.62 1020.58 1020.58 1020.58 1020.54
1010.66 1010.94 1011.18 1011.42 1011.54 1011.74 1012.06 1012.38 1012.66 1012.90 1013.14 1013.42 1013.74 1014.10 1014.38 1014.66 1014.90 1015.06 1015.26 1015.54 1015.86 1016.10 1016.30 1016.54 1016.74 1016.90 1017.14 1017.30 1017.54 1017.78 1018.02 1018.26 1018.50 1018.66 1018.86 1019.10 1019.26 1019.38 1019.50 1019.66 1019.74 1019.86 1019.94 1020.02 1020.10 1020.18 1020.30 1020.34 1020.38 1020.46 1020.50 1020.58 1020.58 1020.66 1020.70 1020.74 1020.82 1020.90 1020.94 1020.90 1020.82 1020.74 1020.74 1020.74 1020.66 1020.62 1020.62 1020.66 1020.62
1010.46 1010.78 1011.14 1011.42 1011.62 1011.86 1012.14 1012.46 1012.66 1012.90 1013.10 1013.42 1013.70 1014.02 1014.34 1014.62 1014.90 1015.06 1015.30 1015.54 1015.82 1016.06 1016.30 1016.46 1016.66 1016.86 1017.02 1017.26 1017.50 1017.74 1018.02 1018.26 1018.46 1018.74 1018.90 1019.06 1019.26 1019.42 1019.54 1019.66 1019.78 1019.90 1019.98 1020.02 1020.10 1020.18 1020.26 1020.30 1020.34 1020.46 1020.54 1020.58 1020.66 1020.70 1020.74 1020.78 1020.86 1020.90 1020.98 1021.02 1020.90 1020.78 1020.74 1020.74 1020.74 1020.70 1020.70 1020.74 1020.74
1010.42 1010.74 1011.06 1011.38 1011.62 1011.82 1012.06 1012.30 1012.50 1012.70 1012.94 1013.26 1013.62 1013.94 1014.26 1014.58 1014.86 1015.10 1015.34 1015.62 1015.82 1016.02 1016.22 1016.42 1016.58 1016.78 1016.98 1017.18 1017.46 1017.74 1018.02 1018.26 1018.50 1018.74 1018.90 1019.06 1019.22 1019.42 1019.58 1019.70 1019.86 1019.94 1020.02 1020.06 1020.10 1020.18 1020.18 1020.30 1020.34 1020.42 1020.50 1020.58 1020.66 1020.74 1020.74 1020.78 1020.86 1020.94 1021.02 1021.02 1020.94 1020.90 1020.82 1020.78 1020.74 1020.74 1020.74 1020.74 1020.78
1010.46 1010.74 1011.06 1011.38 1011.62 1011.74 1011.94 1012.22 1012.38 1012.58 1012.82 1013.18 1013.54 1013.90 1014.22 1014.58 1014.86 1015.10 1015.30 1015.58 1015.78 1016.02 1016.18 1016.42 1016.58 1016.74 1016.98 1017.18 1017.46 1017.74 1018.02 1018.26 1018.46 1018.70 1018.90 1019.02 1019.22 1019.38 1019.58 1019.74 1019.86 1019.94 1020.02 1020.06 1020.10 1020.14 1020.18 1020.26 1020.30 1020.42 1020.50 1020.58 1020.66 1020.74 1020.74 1020.78 1020.90 1020.98 1021.02 1020.98 1020.94 1020.94 1020.94 1020.86 1020.82 1020.82 1020.78 1020.78 1020.78
1010.46 1010.74 1011.02 1011.34 1011.58 1011.74 1011.94 1012.22 1012.46 1012.66 1012.90 1013.22 1013.58 1013.90 1014.18 1014.50 1014.82 1015.10 1015.30 1015.54 1015.78 1016.02 1016.18 1016.30 1016.50 1016.74 1016.98 1017.22 1017.46 1017.74 1017.98 1018.22 1018.46 1018.62 1018.86 1019.02 1019.22 1019.38 1019.58 1019.74 1019.86 1019.94 1020.02 1020.02 1020.06 1020.14 1020.18 1020.26 1020.34 1020.46 1020.54 1020.58 1020.66 1020.74 1020.74 1020.78 1020.86 1020.94 1020.98 1020.98 1020.98 1021.02 1021.02 1020.94 1020.90 1020.90 1020.86 1020.82 1020.82
1010.38 1010.70 1011.02 1011.26 1011.46 1011.70 1011.98 1012.34 1012.62 1012.90 1013.10 1013.38 1013.70 1013.94 1014.18 1014.46 1014.78 1015.06 1015.30 1015.54 1015.78 1016.02 1016.18 1016.30 1016.46 1016.70 1016.94 1017.22 1017.46 1017.70 1017.94 1018.18 1018.42 1018.62 1018.82 1019.02 1019.22 1019.38 1019.58 1019.74 1019.82 1019.90 1019.98 1019.98 1020.02 1020.06 1020.18 1020.30 1020.38 1020.50 1020.58 1020.66 1020.70 1020.74 1020.74 1020.78 1020.90 1020.94 1020.98 1020.98 1021.02 1021.02 1021.02 1021.02 1020.98 1020.94 1020.90 1020.90 1020.90
1010.30 1010.66 1011.02 1011.26 1011.46 1011.74 1012.06 1012.42 1012.74 1013.02 1013.26 1013.54 1013.78 1014.02 1014.26 1014.50 1014.78 1015.06 1015.34 1015.62 1015.82 1016.02 1016.18 1016.30 1016.46 1016.70 1016.90 1017.18 1017.46 1017.70 1017.94 1018.18 1018.42 1018.58 1018.82 1019.02 1019.18 1019.42 1019.62 1019.74 1019.82 1019.90 1019.90 1019.94 1019.98 1020.06 1020.18 1020.26 1020.42 1020.54 1020.62 1020.70 1020.74 1020.74 1020.74 1020.78 1020.86 1020.90 1020.98 1021.02 1021.06 1021.10 1021.14 1021.14 1021.06 1021.02 1021.02 1020.98 1020.98
1010.30 1010.62 1010.98 1011.22 1011.46 1011.74 1012.10 1012.46 1012.74 1013.02 1013.26 1013.54 1013.78 1014.06 1014.30 1014.54 1014.78 1015.02 1015.30 1015.58 1015.78 1016.02 1016.22 1016.42 1016.58 1016.74 1016.90 1017.14 1017.42 1017.70 1017.90 1018.18 1018.38 1018.58 1018.82 1019.02 1019.22 1019.42 1019.58 1019.74 1019.74 1019.82 1019.90 1019.94 1019.98 1020.06 1020.18 1020.30 1020.38 1020.46 1020.58 1020.66 1020.70 1020.70 1020.70 1020.74 1020.82 1020.90 1021.02 1021.06 1021.14 1021.18 1021.18 1021.18 1021.14 1021.10 1021.10 1021.14 1021.14
1010.30 1010.58 1010.90 1011.14 1011.46 1011.74 1012.06 1012.42 1012.70 1012.94 1013.18 1013.46 1013.74 1014.02 1014.30 1014.58 1014.86 1015.06 1015.30 1015.58 1015.78 1016.02 1016.22 1016.46 1016.66 1016.82 1016.98 1017.14 1017.38 1017.62 1017.90 1018.14 1018.34 1018.58 1018.82 1019.02 1019.22 1019.42 1019.54 1019.70 1019.74 1019.78 1019.82 1019.90 1019.98 1020.02 1020.10 1020.22 1020.30 1020.42 1020.50 1020.58 1020.62 1020.66 1020.66 1020.74 1020.82 1020.90 1020.98 1021.06 1021.14 1021.18 1021.22 1021.22 1021.22 1021.22 1021.26 1021.26 1021.30
1010.26 1010.54 1010.86 1011.10 1011.42 1011.74 1012.06 1012.34 1012.62 1012.90 1013.18 1013.42 1013.70 1014.02 1014.30 1014.58 1014.86 1015.10 1015.34 1015.62 1015.82 1016.02 1016.26 1016.46 1016.66 1016.90 1017.02 1017.18 1017.38 1017.62 1017.90 1018.14 1018.34 1018.58 1018.86 1019.06 1019.26 1019.42 1019.58 1019.70 1019.74 1019.74 1019.82 1019.90 1019.94 1020.02 1020.06 1020.14 1020.22 1020.30 1020.42 1020.46 1020.58 1020.62 1020.70 1020.74 1020.82 1020.90 1020.98 1021.02 1021.14 1021.18 1021.26 1021.30 1021.30 1021.34 1021.34 1021.34 1021.38
1010.06 1010.46 1010.74 1011.02 1011.30 1011.62 1011.98 1012.30 1012.58 1012.86 1013.14 1013.42 1013.70 1013.98 1014.30 1014.58 1014.90 1015.10 1015.30 1015.58 1015.82 1016.06 1016.30 1016.50 1016.66 1016.86 1017.06 1017.30 1017.46 1017.62 1017.90 1018.14 1018.38 1018.58 1018.82 1019.02 1019.22 1019.42 1019.54 1019.62 1019.70 1019.74 1019.78 1019.90 1019.94 1020.02 1020.10 1020.14 1020.18 1020.22 1020.30 1020.38 1020.46 1020.58 1020.66 1020.74 1020.82 1020.90 1020.98 1021.02 1021.14 1021.22 1021.30 1021.34 1021.38 1021.42 1021.46 1021.42 1021.46
1009.90 1010.22 1010.58 1010.90 1011.22 1011.58 1011.90 1012.22 1012.50 1012.82 1013.10 1013.38 1013.66 1013.94 1014.22 1014.54 1014.82 1015.06 1015.30 1015.50 1015.74 1016.02 1016.30 1016.54 1016.70 1016.86 1017.06 1017.30 1017.46 1017.70 1017.90 1018.10 1018.34 1018.58 1018.78 1018.98 1019.18 1019.34 1019.46 1019.58 1019.62 1019.66 1019.74 1019.82 1019.90 1020.02 1020.06 1020.10 1020.14 1020.18 1020.26 1020.34 1020.46 1020.54 1020.62 1020.74 1020.86 1020.94 1021.02 1021.10 1021.18 1021.26 1021.30 1021.38 1021.46 1021.46 1021.50 1021.50 1021.46
1009.74 1010.02 1010.34 1010.74 1011.10 1011.46 1011.82 1012.18 1012.46 1012.78 1013.10 1013.38 1013.62 1013.94 1014.22 1014.50 1014.74 1015.02 1015.30 1015.54 1015.74 1015.98 1016.22 1016.46 1016.74 1016.90 1017.02 1017.22 1017.46 1017.70 1017.90 1018.06 1018.30 1018.54 1018.74 1018.90 1019.10 1019.26 1019.42 1019.50 1019.58 1019.62 1019.70 1019.74 1019.86 1019.90 1019.98 1020.02 1020.10 1020.18 1020.26 1020.34 1020.46 1020.54 1020.62 1020.74 1020.86 1020.98 1021.06 1021.18 1021.22 1021.30 1021.38 1021.46 1021.46 1021.50 1021.54 1021.54 1021.50
1009.66 1009.90 1010.18 1010.54 1010.90 1011.30 1011.74 1012.10 1012.46 1012.74 1013.06 1013.34 1013.62 1013.98 1014.30 1014.50 1014.74 1014.98 1015.26 1015.58 1015.74 1015.90 1016.18 1016.42 1016.66 1016.90 1017.06 1017.22 1017.46 1017.70 1017.90 1018.06 1018.26 1018.46 1018.74 1018.90 1019.06 1019.22 1019.34 1019.46 1019.50 1019.58 1019.66 1019.74 1019.78 1019.90 1019.94 1020.02 1020.10 1020.18 1020.26 1020.38 1020.46 1020.58 1020.70 1020.78 1020.90 1021.02 1021.10 1021.18 1021.26 1021.34 1021.42 1021.46 1021.46 1021.50 1021.54 1021.50 1021.50
1009.62 1009.78 1010.02 1010.34 1010.78 1011.18 1011.62 1012.02 1012.38 1012.74 1013.02 1013.38 1013.66 1013.98 1014.30 1014.54 1014.74 1014.94 1015.18 1015.46 1015.70 1015.94 1016.14 1016.34 1016.58 1016.82 1017.02 1017.26 1017.46 1017.66 1017.86 1018.02 1018.26 1018.46 1018.70 1018.90 1019.06 1019.18 1019.30 1019.38 1019.46 1019.50 1019.62 1019.74 1019.78 1019.90 1019.94 1020.02 1020.10 1020.18 1020.30 1020.42 1020.54 1020.62 1020.74 1020.86 1020.98 1021.06 1021.18 1021.22 1021.30 1021.34 1021.42 1021.46 1021.46 1021.50 1021.54 1021.54 1021.50
1009.62 1009.74 1009.94 1010.26 1010.66 1011.06 1011.46 1011.90 1012.30 1012.70 1013.06 1013.38 1013.70 1014.02 1014.34 1014.58 1014.78 1014.98 1015.18 1015.42 1015.66 1015.90 1016.14 1016.34 1016.58 1016.74 1016.98 1017.18 1017.42 1017.62 1017.82 1018.02 1018.26 1018.46 1018.66 1018.86 1019.02 1019.14 1019.22 1019.30 1019.42 1019.54 1019.66 1019.78 1019.90 1019.94 1020.02 1020.02 1020.14 1020.22 1020.30 1020.42 1020.58 1020.70 1020.78 1020.90 1021.02 1021.18 1021.22 1021.30 1021.34 1021.38 1021.46 1021.50 1021.50 1021.54 1021.58 1021.54 1021.50
1009.66 1009.82 1009.98 1010.26 1010.58 1010.98 1011.42 1011.82 1012.26 1012.66 1013.06 1013.42 1013.74 1014.06 1014.42 1014.66 1014.86 1015.02 1015.26 1015.46 1015.66 1015.90 1016.14 1016.34 1016.54 1016.74 1016.90 1017.10 1017.30 1017.58 1017.82 1018.02 1018.26 1018.46 1018.66 1018.82 1019.02 1019.14 1019.22 1019.30 1019.46 1019.62 1019.74 1019.86 1019.98 1020.02 1020.10 1020.18 1020.22 1020.30 1020.38 1020.50 1020.62 1020.74 1020.82 1020.90 1021.06 1021.18 1021.30 1021.34 1021.42 1021.46 1021.50 1021.50 1021.54 1021.58 1021.58 1021.50 1021.46
1009.70 1009.90 1010.06 1010.30 1010.62 1010.98 1011.34 1011.74 1012.18 1012.66 1013.06 1013.46 1013.78 1014.14 1014.46 1014.66 1014.86 1015.06 1015.30 1015.50 1015.70 1015.90 1016.14 1016.34 1016.54 1016.70 1016.90 1017.10 1017.30 1017.50 1017.74 1018.02 1018.30 1018.54 1018.70 1018.82 1018.94 1019.10 1019.26 1019.38 1019.54 1019.70 1019.86 1019.94 1020.02 1020.10 1020.18 1020.30 1020.34 1020.42 1020.50 1020.58 1020.74 1020.78 1020.90 1020.98 1021.06 1021.18 1021.30 1021.38 1021.46 1021.54 1021.58 1021.54 1021.58 1021.58 1021.58 1021.54 1021.46
1009.74 1009.94 1010.18 1010.46 1010.70 1010.98 1011.30 1011.70 1012.18 1012.62 1013.02 1013.38 1013.78 1014.18 1014.46 1014.66 1014.90 1015.10 1015.30 1015.54 1015.74 1015.90 1016.10 1016.30 1016.50 1016.70 1016.90 1017.06 1017.30 1017.46 1017.74 1017.98 1018.26 1018.54 1018.74 1018.90 1018.98 1019.14 1019.30 1019.46 1019.62 1019.74 1019.90 1019.98 1020.02 1020.10 1020.22 1020.30 1020.42 1020.54 1020.62 1020.70 1020.74 1020.86 1020.90 1021.02 1021.10 1021.18 1021.30 1021.38 1021.50 1021.58 1021.62 1021.62 1021.62 1021.62 1021.58 1021.54 1021.46
1009.70 1010.02 1010.30 1010.58 1010.78 1010.98 1011.26 1011.66 1012.10 1012.54 1012.98 1013.42 1013.82 1014.18 1014.46 1014.66 1014.86 1015.06 1015.30 1015.50 1015.74 1015.90 1016.10 1016.30 1016.50 1016.66 1016.86 1017.06 1017.30 1017.50 1017.74 1017.98 1018.22 1018.46 1018.66 1018.86 1019.02 1019.18 1019.30 1019.50 1019.66 1019.82 1019.94 1019.98 1020.02 1020.14 1020.22 1020.30 1020.46 1020.58 1020.70 1020.74 1020.82 1020.90 1021.02 1021.10 1021.18 1021.26 1021.30 1021.42 1021.50 1021.62 1021.66 1021.74 1021.66 1021.62 1021.58 1021.50 1021.42
1009.62 1010.02 1010.38 1010.70 1010.90 1011.02 1011.30 1011.66 1012.06 1012.50 1012.98 1013.46 1013.90 1014.18 1014.42 1014.62 1014.86 1015.02 1015.26 1015.46 1015.74 1015.90 1016.10 1016.30 1016.46 1016.66 1016.86 1017.02 1017.30 1017.54 1017.78 1018.02 1018.18 1018.38 1018.58 1018.78 1019.02 1019.22 1019.42 1019.58 1019.74 1019.90 1020.02 1020.02 1020.10 1020.18 1020.26 1020.34 1020.46 1020.58 1020.74 1020.86 1020.94 1021.02 1021.14 1021.22 1021.26 1021.30 1021.38 1021.46 1021.54 1021.62 1021.70 1021.74 1021.74 1021.66 1021.62 1021.50 1021.42
1009.58 1009.94 1010.30 1010.70 1010.94 1011.18 1011.38 1011.74 1012.10 1012.58 1013.02 1013.50 1013.90 1014.14 1014.34 1014.58 1014.86 1015.06 1015.26 1015.46 1015.66 1015.90 1016.10 1016.30 1016.46 1016.62 1016.82 1017.06 1017.30 1017.54 1017.78 1018.02 1018.18 1018.34 1018.54 1018.74 1018.98 1019.18 1019.42 1019.62 1019.74 1019.90 1020.02 1020.06 1020.18 1020.26 1020.34 1020.46 1020.58 1020.66 1020.74 1020.90 1021.02 1021.10 1021.18 1021.30 1021.34 1021.42 1021.46 1021.54 1021.62 1021.66 1021.70 1021.74 1021.70 1021.66 1021.62 1021.54 1021.46
1009.46 1009.86 1010.26 1010.66 1010.94 1011.18 1011.46 1011.78 1012.18 1012.58 1013.06 1013.54 1013.86 1014.10 1014.30 1014.58 1014.78 1014.98 1015.18 1015.42 1015.62 1015.90 1016.10 1016.30 1016.42 1016.62 1016.90 1017.14 1017.30 1017.50 1017.74 1017.94 1018.14 1018.30 1018.54 1018.78 1019.02 1019.22 1019.46 1019.62 1019.78 1019.94 1020.02 1020.10 1020.22 1020.30 1020.46 1020.58 1020.62 1020.70 1020.78 1020.90 1021.06 1021.18 1021.26 1021.34 1021.42 1021.46 1021.58 1021.62 1021.66 1021.70 1021.74 1021.74 1021.70 1021.66 1021.62 1021.58 1021.50
1009.30 1009.74 1010.18 1010.58 1010.90 1011.18 1011.50 1011.86 1012.22 1012.70 1013.18 1013.54 1013.86 1014.10 1014.30 1014.58 1014.78 1014.98 1015.18 1015.38 1015.62 1015.78 1015.98 1016.18 1016.38 1016.62 1016.90 1017.10 1017.30 1017.54 1017.74 1017.94 1018.10 1018.30 1018.50 1018.78 1019.06 1019.30 1019.50 1019.70 1019.86 1019.94 1020.02 1020.18 1020.30 1020.38 1020.50 1020.62 1020.74 1020.78 1020.90 1020.98 1021.10 1021.22 1021.30 1021.38 1021.46 1021.58 1021.62 1021.66 1021.70 1021.70 1021.74 1021.74 1021.70 1021.66 1021.62 1021.62 1021.58
1009.22 1009.66 1010.06 1010.46 1010.82 1011.18 1011.58 1011.90 1012.30 1012.78 1013.18 1013.54 1013.82 1014.02 1014.26 1014.50 1014.74 1014.90 1015.06 1015.26 1015.46 1015.70 1015.90 1016.10 1016.34 1016.58 1016.82 1017.02 1017.26 1017.50 1017.74 1017.90 1018.06 1018.26 1018.50 1018.82 1019.10 1019.34 1019.58 1019.74 1019.90 1020.02 1020.14 1020.26 1020.34 1020.46 1020.58 1020.70 1020.78 1020.90 1020.98 1021.06 1021.18 1021.30 1021.38 1021.46 1021.54 1021.62 1021.66 1021.70 1021.74 1021.74 1021.74 1021.74 1021.74 1021.70 1021.66 1021.62 1021.62
1009.06 1009.54 1009.98 1010.42 1010.86 1011.22 1011.62 1011.98 1012.42 1012.86 1013.22 1013.54 1013.78 1014.02 1014.18 1014.42 1014.62 1014.82 1015.02 1015.18 1015.42 1015.66 1015.90 1016.14 1016.34 1016.58 1016.78 1017.02 1017.26 1017.46 1017.66 1017.90 1018.06 1018.30 1018.54 1018.78 1019.10 1019.38 1019.62 1019.82 1019.98 1020.10 1020.18 1020.30 1020.46 1020.58 1020.66 1020.74 1020.90 1020.98 1021.06 1021.10 1021.26 1021.34 1021.46 1021.50 1021.58 1021.62 1021.70 1021.74 1021.74 1021.74 1021.74 1021.74 1021.74 1021.70 1021.70 1021.66 1021.66
1008.98 1009.46 1009.90 1010.38 1010.90 1011.30 1011.66 1012.06 1012.46 1012.86 1013.18 1013.46 1013.70 1013.90 1014.14 1014.34 1014.58 1014.82 1015.02 1015.18 1015.42 1015.62 1015.86 1016.02 1016.30 1016.50 1016.74 1016.98 1017.18 1017.42 1017.62 1017.86 1018.06 1018.30 1018.54 1018.78 1019.10 1019.42 1019.70 1019.90 1020.02 1020.14 1020.22 1020.30 1020.50 1020.66 1020.74 1020.82 1020.94 1021.02 1021.10 1021.18 1021.30 1021.46 1021.54 1021.62 1021.66 1021.70 1021.74 1021.74 1021.74 1021.74 1021.74 1021.74 1021.74 1021.74 1021.74 1021.74 1021.70
1008.94 1009.38 1009.90 1010.38 1010.90 1011.34 1011.74 1012.14 1012.50 1012.90 1013.18 1013.46 1013.74 1013.94 1014.14 1014.38 1014.62 1014.86 1015.02 1015.22 1015.38 1015.54 1015.74 1015.98 1016.18 1016.38 1016.62 1016.86 1017.10 1017.38 1017.62 1017.86 1018.06 1018.30 1018.58 1018.86 1019.14 1019.42 1019.70 1019.94 1020.06 1020.18 1020.30 1020.42 1020.58 1020.70 1020.82 1020.90 1020.98 1021.06 1021.14 1021.18 1021.38 1021.50 1021.62 1021.62 1021.74 1021.74 1021.78 1021.78 1021.78 1021.78 1021.78 1021.78 1021.78 1021.78 1021.74 1021.74 1021.74
1008.90 1009.34 1009.90 1010.46 1010.98 1011.42 1011.82 1012.18 1012.58 1012.90 1013.22 1013.50 1013.74 1013.94 1014.14 1014.30 1014.54 1014.74 1014.90 1015.14 1015.34 1015.54 1015.74 1015.94 1016.14 1016.34 1016.58 1016.78 1017.02 1017.30 1017.58 1017.78 1018.06 1018.34 1018.58 1018.90 1019.18 1019.46 1019.74 1019.98 1020.14 1020.22 1020.30 1020.46 1020.58 1020.74 1020.86 1020.94 1021.02 1021.06 1021.18 1021.30 1021.46 1021.58 1021.62 1021.74 1021.82 1021.86 1021.90 1021.90 1021.90 1021.90 1021.86 1021.86 1021.82 1021.82 1021.82 1021.78 1021.78
1008.86 1009.42 1010.02 1010.62 1011.02 1011.46 1011.86 1012.22 1012.58 1012.90 1013.22 1013.46 1013.74 1013.94 1014.14 1014.30 1014.50 1014.70 1014.90 1015.06 1015.30 1015.54 1015.74 1015.98 1016.18 1016.38 1016.62 1016.90 1017.10 1017.30 1017.54 1017.74 1018.02 1018.34 1018.62 1018.90 1019.18 1019.46 1019.74 1019.98 1020.14 1020.22 1020.30 1020.46 1020.62 1020.74 1020.86 1020.98 1021.02 1021.10 1021.22 1021.38 1021.54 1021.62 1021.70 1021.78 1021.90 1021.94 1021.98 1022.02 1022.02 1021.98 1021.98 1021.94 1021.90 1021.90 1021.90 1021.90 1021.86
1008.82 1009.42 1010.10 1010.66 1011.10 1011.50 1011.90 1012.22 1012.54 1012.90 1013.18 1013.46 1013.66 1013.86 1014.06 1014.30 1014.54 1014.74 1014.90 1015.06 1015.30 1015.54 1015.74 1015.94 1016.18 1016.42 1016.62 1016.86 1017.10 1017.30 1017.50 1017.70 1017.94 1018.26 1018.58 1018.86 1019.10 1019.42 1019.70 1019.94 1020.10 1020.22 1020.30 1020.46 1020.62 1020.74 1020.86 1020.94 1021.02 1021.18 1021.30 1021.46 1021.54 1021.66 1021.78 1021.90 1021.94 1022.02 1022.02 1022.06 1022.06 1022.06 1022.02 1022.02 1022.02 1022.02 1022.02 1021.98 1021.90
1008.74 1009.38 1010.06 1010.66 1011.14 1011.54 1011.90 1012.18 1012.50 1012.82 1013.14 1013.38 1013.62 1013.78 1013.98 1014.26 1014.50 1014.74 1014.90 1015.02 1015.22 1015.46 1015.70 1015.90 1016.14 1016.34 1016.58 1016.82 1017.06 1017.30 1017.46 1017.62 1017.86 1018.14 1018.46 1018.78 1019.02 1019.34 1019.62 1019.90 1020.06 1020.22 1020.34 1020.42 1020.58 1020.74 1020.82 1020.94 1021.10 1021.22 1021.30 1021.46 1021.62 1021.74 1021.82 1021.90 1022.02 1022.02 1022.10 1022.10 1022.14 1022.14 1022.10 1022.10 1022.06 1022.10 1022.10 1022.06 1021.94
1008.74 1009.34 1010.02 1010.62 1011.14 1011.54 1011.90 1012.18 1012.50 1012.78 1013.06 1013.30 1013.58 1013.82 1014.02 1014.30 1014.46 1014.70 1014.86 1014.98 1015.14 1015.34 1015.62 1015.90 1016.14 1016.34 1016.58 1016.74 1017.02 1017.30 1017.54 1017.66 1017.78 1018.02 1018.34 1018.70 1018.98 1019.26 1019.54 1019.82 1020.02 1020.18 1020.34 1020.42 1020.54 1020.66 1020.78 1020.94 1021.06 1021.18 1021.30 1021.46 1021.62 1021.74 1021.82 1021.90 1022.02 1022.10 1022.14 1022.18 1022.18 1022.18 1022.18 1022.18 1022.18 1022.18 1022.18 1022.18 1022.02
1008.74 1009.42 1010.06 1010.66 1011.14 1011.50 1011.86 1012.18 1012.54 1012.78 1013.02 1013.30 1013.58 1013.82 1014.06 1014.30 1014.50 1014.70 1014.86 1015.02 1015.18 1015.38 1015.62 1015.86 1016.10 1016.34 1016.54 1016.74 1017.02 1017.30 1017.58 1017.74 1017.86 1018.02 1018.30 1018.58 1018.90 1019.18 1019.46 1019.74 1019.98 1020.18 1020.30 1020.38 1020.50 1020.66 1020.78 1020.90 1021.06 1021.18 1021.34 1021.54 1021.62 1021.66 1021.74 1021.86 1021.98 1022.14 1022.18 1022.22 1022.26 1022.26 1022.26 1022.26 1022.26 1022.26 1022.26 1022.22 1022.18
1008.90 1009.62 1010.22 1010.74 1011.14 1011.50 1011.86 1012.18 1012.54 1012.78 1013.02 1013.26 1013.50 1013.78 1014.02 1014.30 1014.58 1014.78 1014.98 1015.14 1015.30 1015.46 1015.66 1015.90 1016.18 1016.38 1016.58 1016.82 1017.06 1017.30 1017.58 1017.78 1017.94 1018.10 1018.30 1018.58 1018.86 1019.10 1019.42 1019.74 1019.98 1020.14 1020.22 1020.30 1020.46 1020.58 1020.74 1020.86 1021.02 1021.18 1021.30 1021.50 1021.58 1021.62 1021.74 1021.86 1022.02 1022.18 1022.26 1022.30 1022.30 1022.30 1022.34 1022.34 1022.30 1022.30 1022.30 1022.30 1022.26
Wind_Speed
14 13 12 11 10 9 9 8 8 8 8 8 8 8 8 8 8 7 6 6 7 7 7 7 7 8 9 10 11 10 10 9 9 8 8 8 7 6 5 4 4 3 3 2 2 1 1 1 1 1 1 1 1 1 1 1 2 2 3 3 3 3 3 3 4 4 4 5 4
15 15 14 12 11 10 9 8 8 8 8 7 8 8 8 7 7 7 7 7 7 7 7 7 8 9 10 11 10 10 9 9 9 8 8 7 6 6 5 4 3 3 3 2 2 1 1 1 1 1 1 1 1 2 2 2 1 2 2 3 3 2 2 3 3 3 4 4 4
14 14 13 13 12 11 10 9 9 9 9 8 8 7 7 7 7 7 7 8 8 8 8 8 9 10 11 11 10 9 9 9 9 8 7 7 6 5 5 4 3 3 3 2 2 1 1 1 1 1 1 1 1 1 2 2 1 1 2 3 2 2 2 2 3 3 3 3 4
13 13 12 12 13 13 12 10 10 10 10 9 9 8 7 7 7 7 8 9 9 9 8 9 9 10 10 10 10 9 8 9 9 8 8 6 6 5 5 4 3 3 2 2 2 1 1 1 1 1 1 1 1 1 1 1 1 1 1 2 1 1 2 2 2 2 3 3 3
12 11 11 11 13 12 12 11 11 11 10 9 9 8 8 7 7 8 8 9 8 8 9 10 9 9 9 10 10 10 9 9 8 8 7 7 6 5 4 4 3 3 2 2 2 1 1 1 1 1 1 1 0 1 1 1 1 1 1 1 1 1 2 2 3 3 3 3 4
12 11 11 11 12 11 11 11 12 11 10 10 10 9 8 8 8 9 9 9 10 10 11 11 10 9 9 10 10 10 9 8 8 7 7 7 5 5 4 4 3 2 2 1 1 1 1 2 1 1 1 1 0 1 1 0 1 1 2 2 2 2 2 3 3 3 3 4 5
14 13 13 12 12 12 11 11 11 11 11 10 12 11 10 9 9 10 11 11 10 10 10 9 9 10 10 10 10 9 8 7 7 7 7 7 5 5 4 3 3 2 2 1 1 1 1 2 1 1 0 0 0 1 1 1 1 2 2 3 2 2 2 3 3 3 3 5 6
16 16 15 14 13 13 13 13 11 11 10 10 12 13 13 12 12 12 12 11 10 10 9 8 10 11 11 10 9 9 8 8 7 7 7 6 6 5 4 3 3 2 1 1 1 1 1 2 2 1 1 0 0 1 1 1 2 2 2 3 3 2 2 2 2 3 3 4 5
15 16 15 14 13 14 14 13 12 12 11 12 13 14 14 14 13 13 12 11 10 10 9 9 11 11 11 11 10 9 8 8 8 7 6 6 6 5 4 3 2 1 1 1 2 2 2 2 2 1 1 1 0 0 1 1 2 2 2 2 3 3 3 2 2 2 3 4 5
14 14 14 12 11 12 13 12 11 12 13 14 15 15 15 14 13 12 11 10 10 10 10 10 11 11 11 11 10 9 8 7 7 7 7 6 6 5 4 3 3 2 1 1 1 2 2 2 2 1 1 1 1 0 0 1 1 1 2 2 2 3 3 3 2 2 3 3 4
14 14 13 11 11 11 12 11 10 11 12 14 15 15 15 14 13 12 11 10 10 10 11 11 11 11 11 10 9 8 8 7 7 7 7 6 5 5 4 3 3 3 2 2 2 2 2 2 2 1 1 1 1 0 0 0 1 1 2 2 2 2 3 3 2 2 2 2 3
14 14 13 11 11 12 12 11 10 11 12 14 15 15 14 14 13 12 11 11 11 11 11 11 11 11 10 8 8 8 8 7 7 7 6 6 5 5 4 3 3 3 3 2 2 2 2 2 2 1 1 0 0 0 0 0 1 1 2 2 2 2 2 3 3 2 2 3 3
14 14 13 12 12 12 12 12 11 11 13 14 14 13 13 13 13 12 12 11 11 10 10 10 10 10 9 8 8 8 7 7 7 7 6 5 5 4 4 3 3 3 3 2 2 2 2 2 2 2 1 0 0 0 0 0 0 1 1 2 2 2 2 3 3 3 4 4 4
14 14 14 13 13 13 13 12 11 12 13 14 13 13 12 12 12 12 12 11 11 10 9 9 8 8 8 9 8 8 8 7 7 7 6 5 5 4 4 3 3 2 2 2 2 2 3 3 3 2 2 1 1 0 0 0 0 0 1 1 2 2 3 3 4 5 5 5 5
14 14 14 14 13 13 12 12 11 12 13 14 13 12 12 11 11 11 11 11 11 10 9 9 7 7 8 9 9 9 8 8 7 7 6 5 5 4 4 3 2 2 2 1 2 2 3 3 3 3 2 2 1 0 0 1 1 2 2 2 3 3 4 5 5 6 6 6 6
16 15 15 14 14 13 12 11 10 11 12 13 13 12 11 11 10 10 10 11 10 9 9 9 8 8 8 8 9 8 8 7 7 6 6 5 4 4 4 3 3 2 2 2 2 2 2 2 3 3 3 2 2 1 1 2 3 3 4 4 4 5 5 6 6 6 6 6 6
17 16 16 15 14 14 13 12 11 11 12 13 13 12 11 10 10 10 10 10 9 9 9 9 8 8 7 7 7 7 7 6 6 6 6 5 5 4 4 3 3 3 2 2 2 2 2 2 2 2 3 2 2 2 3 3 4 4 5 5 5 6 6 6 6 6 6 7 6
18 18 17 16 15 14 14 13 12 12 13 13 13 12 11 11 10 10 10 10 10 11 11 10 9 8 8 8 6 5 5 6 6 6 6 5 5 5 4 3 3 3 2 2 2 2 2 2 2 2 2 3 3 3 4 5 5 5 6 6 6 6 6 6 6 6 6 6 6
18 18 18 17 16 15 14 14 14 14 14 14 13 12 12 12 12 11 11 10 11 11 11 10 9 8 8 8 7 6 5 5 6 6 5 5 5 4 4 3 3 2 2 2 3 2 2 2 2 3 3 4 4 4 5 5 5 6 6 6 6 6 6 6 6 6 6 6 6
18 18 18 17 16 16 15 15 15 15 14 13 13 13 13 12 12 12 12 11 11 11 11 11 10 9 8 8 7 6 5 5 6 6 5 5 5 4 4 3 3 2 2 2 2 2 2 2 3 4 4 5 5 5 5 6 6 6 6 5 5 5 6 6 6 6 6 6 6
18 18 18 17 17 16 16 16 16 15 15 14 14 14 13 12 12 12 12 12 11 11 11 11 10 10 9 9 8 7 5 4 5 6 6 5 5 4 4 4 3 2 2 2 2 2 3 3 4 4 5 5 5 5 5 5 5 5 5 5 5 5 5 5 5 5 6 6 6
17 17 17 17 17 17 17 17 16 16 15 14 14 14 13 12 12 12 12 11 11 11 10 10 10 10 10 9 9 7 6 4 5 5 5 5 4 4 3 3 3 3 3 3 3 3 4 4 4 5 5 5 5 5 5 5 5 5 5 4 4 4 4 4 4 5 5 6 6
16 16 16 16 17 17 17 17 17 16 15 15 14 13 13 12 11 11 11 10 10 10 9 8 8 9 9 9 9 8 7 5 4 4 4 4 4 3 3 3 4 4 4 4 4 4 4 5 5 5 5 5 5 5 5 5 5 5 4 4 4 3 3 3 3 4 5 6 6
16 15 15 14 16 18 18 18 17 16 15 15 14 13 12 12 11 11 11 10 10 10 9 7 7 8 9 8 9 8 7 6 5 4 4 4 4 4 4 4 5 5 5 4 5 5 5 4 4 5 5 4 5 5 5 5 5 4 4 3 3 2 2 3 3 4 5 6 6
15 15 14 14 16 18 18 18 17 16 15 15 14 13 12 12 12 11 11 10 10 10 9 8 7 7 8 8 8 8 8 7 6 5 4 4 4 4 5 5 5 4 4 5 8 8 8 6 5 4 4 4 4 4 4 4 4 4 3 3 2 2 2 2 3 4 5 6 6
15 15 15 15 16 17 18 18 17 16 15 14 14 13 13 12 12 11 11 11 10 9 9 8 8 7 7 7 7 7 7 6 6 6 6 5 5 5 5 5 4 4 4 6 9 10 10 10 8 7 5 4 4 4 4 3 3 3 3 2 2 1 2 2 3 4 4 5 6
15 15 15 16 16 17 18 17 17 16 15 14 14 13 13 12 11 11 11 11 10 9 8 8 7 7 7 7 7 7 6 5 5 6 6 6 7 6 6 5 4 4 5 8 10 10 10 11 10 9 7 5 4 4 3 3 3 2 2 2 1 1 1 2 3 4 4 5 5
16 16 16 17 17 17 17 16 16 15 15 14 14 13 13 12 12 12 11 11 10 9 8 7 6 6 6 6 6 6 6 5 5 5 6 7 8 7 7 5 5 5 7 9 10 10 10 10 10 9 8 6 4 3 3 3 2 2 1 1 1 1 2 2 3 4 4 4 4
17 17 17 17 17 16 16 16 15 15 15 14 13 13 13 13 12 12 12 11 11 9 7 6 6 5 5 6 6 6 6 5 5 5 6 7 8 8 7 6 6 7 9 11 11 10 10 10 9 9 8 6 4 3 2 2 1 1 1 1 1 1 2 2 3 3 3 3 3
18 18 18 18 17 16 15 15 15 14 14 13 13 13 13 13 12 12 12 12 11 9 7 7 6 6 7 7 6 6 5 5 5 6 7 8 9 8 7 7 6 7 9 11 11 10 10 10 9 8 7 6 4 2 1 1 1 1 0 1 1 2 2 2 2 2 3 3 3
19 19 18 17 16 15 15 14 14 14 13 12 13 13 13 13 13 12 12 11 9 8 8 8 8 8 7 6 6 5 5 5 5 6 8 9 9 8 8 7 6 7 9 11 11 10 10 10 8 7 6 4 3 2 1 1 0 0 0 1 1 1 1 2 2 3 3 4 4
19 19 18 17 15 14 14 14 13 13 13 13 13 13 13 13 12 11 10 9 9 9 8 8 9 8 7 6 6 6 6 6 6 7 8 10 10 9 8 7 6 7 9 11 11 10 10 9 8 6 5 3 2 1 1 0 0 0 0 0 1 1 2 2 3 4 4 5 5
20 19 18 17 15 14 14 14 13 13 13 13 13 13 13 12 10 10 10 9 9 9 9 9 9 9 8 7 6 6 6 6 7 8 9 10 11 10 9 7 6 7 10 12 11 10 9 9 7 6 4 3 2 1 1 1 1 1 1 2 2 3 3 4 4 4 5 5 5
19 19 18 17 15 14 13 12 12 12 12 12 12 12 12 11 11 10 9 9 8 8 8 8 8 8 7 6 6 6 6 6 8 9 10 11 11 10 8 6 5 8 11 12 11 10 9 8 7 5 4 3 2 1 1 2 2 2 3 3 3 4 4 4 4 5 5 5 5
18 19 18 17 15 14 13 12 11 11 11 12 11 11 11 11 11 11 10 9 7 7 7 7 6 6 5 5 5 6 6 7 9 10 11 11 11 11 9 7 6 9 12 12 11 9 8 7 6 6 5 4 2 2 2 3 3 3 3 3 3 4 4 5 5 5 5 5 5
18 18 17 15 15 13 12 12 12 12 12 12 11 11 11 10 10 9 9 9 8 7 7 7 6 6 5 5 5 5 6 8 9 10 11 11 11 11 10 8 7 9 12 12 11 9 8 7 6 6 5 4 3 2 2 2 2 2 2 3 3 4 4 5 5 5 6 6 6
18 18 16 15 15 13 13 12 13 13 12 12 11 11 11 11 9 8 8 8 8 8 8 7 7 7 6 6 5 5 6 8 9 10 11 11 12 11 10 9 8 9 11 12 11 9 8 7 7 7 5 3 2 2 2 2 2 2 2 2 3 3 4 4 5 5 6 6 6
19 18 17 16 15 13 13 13 13 13 13 12 11 10 10 10 9 8 8 8 7 8 8 7 7 7 7 7 7 6 7 8 9 10 11 12 12 12 11 9 8 9 10 12 11 10 9 8 8 7 6 3 2 2 2 2 2 2 2 2 2 3 4 4 4 5 5 6 8
19 19 18 16 15 14 13 14 13 13 13 13 11 10 10 9 8 8 7 7 7 7 7 7 7 7 7 8 8 7 6 7 9 10 11 12 12 12 12 11 9 8 9 11 11 10 9 9 9 8 7 4 3 2 2 2 2 2 2 2 3 3 4 4 4 4 4 6 9
19 18 17 16 15 14 14 14 13 12 12 12 12 11 10 9 7 7 7 6 6 7 7 7 8 8 8 9 8 7 7 6 7 9 10 12 13 14 14 11 10 9 10 11 11 10 10 9 10 9 7 4 3 3 3 3 3 3 2 2 2 3 3 3 3 3 4 4 7
17 17 16 15 15 14 14 14 13 12 12 11 11 10 8 8 7 6 6 6 6 6 6 7 8 8 8 8 8 8 7 6 6 7 9 11 13 13 13 11 10 9 9 11 11 11 10 10 10 10 8 4 3 3 3 3 3 3 2 2 2 2 2 2 3 3 3 3 4
Wind_Direction
149 149 148 147 146 145 148 152 152 152 153 154 155 156 155 152 149 146 142 136 131 129 128 126 125 123 120 118 117 116 115 113 112 111 110 110 110 109 108 107 107 105 102 98 93 87 81 78 68 58 45 49 25 358 342 334 344 339 332 325 315 311 310 314 310 309 310 310 310
150 150 150 150 148 148 149 153 152 152 152 154 153 153 150 146 143 140 136 131 129 127 126 124 123 122 121 121 120 119 118 117 115 113 111 111 111 111 111 110 111 112 111 110 103 96 84 75 66 50 29 20 21 2 340 322 337 337 327 314 306 305 311 314 307 307 309 314 318
151 152 152 151 150 149 150 152 152 152 150 149 148 147 144 141 139 135 133 130 128 126 126 125 125 124 123 123 122 121 120 120 118 115 113 111 111 110 111 111 108 109 109 112 111 106 97 87 81 66 43 20 15 352 323 310 330 335 317 296 294 304 315 315 310 314 321 327 329
150 151 151 150 149 148 149 150 150 150 148 145 142 140 139 138 136 134 131 128 127 126 127 128 127 126 125 124 123 122 120 119 118 116 114 113 112 112 112 110 106 105 106 108 106 103 98 94 87 84 74 51 12 313 290 294 326 328 298 277 288 309 321 321 322 328 334 336 335
148 149 149 148 147 146 145 145 145 145 143 140 139 138 137 137 135 133 132 130 129 130 130 130 128 127 126 124 123 121 119 117 116 116 116 115 115 113 111 107 108 108 107 104 105 107 105 100 95 96 108 130 187 237 251 274 330 329 312 304 316 330 333 333 333 337 341 341 340
148 146 145 145 143 140 139 141 141 141 140 138 137 137 138 138 138 136 135 133 131 130 129 128 127 126 124 123 121 120 118 117 116 117 117 117 114 111 106 105 107 109 110 111 119 123 120 111 103 106 123 134 195 246 258 336 11 358 345 336 330 336 342 339 335 339 345 346 344
148 146 145 147 144 142 142 144 143 142 140 137 137 138 139 139 137 135 133 131 131 130 130 129 129 128 126 125 123 121 119 119 117 117 118 118 114 111 108 108 107 110 119 138 138 134 129 121 117 116 112 95 28 316 323 21 26 12 355 340 331 336 340 334 333 340 347 348 347
148 148 149 152 151 150 151 153 151 148 144 141 140 140 138 137 135 133 131 130 132 133 134 132 132 131 129 128 126 124 122 121 120 119 119 118 115 112 110 110 109 118 145 166 157 151 143 129 127 129 126 95 55 324 333 8 19 9 353 335 327 329 333 330 334 342 349 351 349
150 151 153 157 156 156 157 159 157 152 147 144 142 140 138 136 134 133 132 132 135 135 134 133 132 131 129 128 127 126 126 125 124 123 122 119 117 115 113 111 117 136 180 194 171 157 146 132 128 133 136 132 149 272 310 4 14 2 344 330 325 324 325 324 332 342 350 354 349
152 152 153 155 156 155 154 154 152 148 144 142 140 138 136 135 135 135 135 136 135 135 134 134 132 130 128 127 127 128 128 127 127 127 124 121 121 122 123 125 137 161 196 217 184 157 142 127 124 128 134 134 151 200 284 6 16 356 334 320 320 320 320 317 327 340 349 352 346
150 149 149 148 148 145 142 141 140 139 138 137 137 136 135 135 136 137 137 136 134 134 135 134 132 130 128 127 128 128 128 128 128 127 126 124 125 128 132 140 153 172 194 212 190 155 133 122 118 119 123 134 145 165 275 13 19 350 326 313 317 319 317 314 323 337 347 350 344
147 144 143 143 141 137 133 131 132 132 133 133 135 135 136 136 137 136 135 134 134 135 134 133 131 130 129 128 128 127 126 126 126 126 126 127 128 131 136 146 160 176 192 204 183 148 127 122 123 126 131 177 155 149 132 27 9 340 322 314 324 328 325 321 330 340 350 356 350
144 142 141 141 138 134 131 132 133 134 134 134 136 136 136 136 137 136 135 134 134 134 133 131 129 128 128 128 128 127 126 126 126 126 127 130 131 133 139 150 164 178 191 199 171 141 125 126 131 136 146 179 187 179 156 70 1 339 327 329 348 354 350 344 348 355 1 5 359
143 142 142 143 139 137 135 136 138 138 138 137 138 138 137 137 137 136 136 135 135 134 131 129 127 128 128 129 128 128 128 128 127 128 129 132 133 135 142 153 166 179 188 193 156 136 130 133 139 145 148 160 189 212 201 110 81 75 52 39 30 21 13 7 8 10 12 10 5
145 145 145 145 143 141 140 141 141 141 140 140 140 139 139 138 138 137 136 135 134 133 131 129 128 127 127 128 128 129 129 128 129 131 132 133 134 137 143 152 165 177 183 178 147 137 137 143 148 148 149 153 171 185 132 86 85 83 73 63 49 37 27 21 20 19 17 14 9
149 148 148 148 147 146 145 144 143 143 142 141 141 140 139 139 138 137 135 134 133 132 131 131 130 129 127 127 128 128 129 130 131 133 134 136 136 138 143 151 165 177 180 164 145 137 141 148 151 150 148 149 148 133 99 82 74 67 60 54 48 41 34 28 25 21 17 13 6
152 152 153 152 151 150 148 146 145 144 143 142 141 140 139 138 137 137 136 136 135 134 134 133 133 131 129 128 128 128 129 131 133 135 137 139 140 142 146 156 171 178 175 156 143 138 141 149 149 144 139 136 129 114 96 82 71 62 56 51 47 42 36 31 26 19 14 8 360
156 156 156 156 154 152 149 146 145 144 143 142 141 139 138 138 138 138 138 138 138 138 137 136 135 134 133 133 132 132 131 135 136 137 138 140 141 144 149 161 173 177 168 152 145 145 149 152 141 128 120 116 109 101 89 79 70 63 58 52 47 41 35 29 23 17 9 1 351
160 159 158 157 155 152 148 145 144 144 143 142 140 139 138 139 139 139 139 140 141 140 139 138 137 137 137 137 137 136 134 135 137 138 137 137 138 142 148 161 171 172 162 150 149 149 149 143 125 112 105 101 95 89 82 77 71 65 60 54 47 40 33 25 18 10 2 352 343
163 161 160 158 154 150 146 144 144 143 142 141 139 139 139 141 140 141 141 143 142 141 140 140 141 140 141 140 140 138 136 133 135 136 135 134 135 141 149 159 165 165 156 144 142 139 135 125 114 107 102 97 92 87 82 76 71 66 61 56 48 40 31 22 13 3 353 343 334
166 163 160 156 151 147 144 143 143 142 141 139 139 139 140 142 142 143 144 144 142 141 141 142 143 144 145 144 143 142 140 132 133 133 134 133 138 144 152 156 155 146 123 106 107 108 108 107 105 103 100 97 95 92 87 80 73 67 61 56 47 38 29 19 7 355 343 332 322
167 164 159 154 148 145 142 142 141 140 140 139 140 140 141 143 144 144 143 141 140 141 142 144 146 146 148 148 147 145 140 131 131 132 134 134 139 145 147 139 124 103 85 74 75 78 81 83 86 90 93 94 93 90 88 84 78 71 62 55 45 35 24 13 359 343 330 318 310
167 163 157 151 145 142 140 140 139 139 139 140 140 142 143 145 144 142 141 139 140 142 144 145 147 148 148 148 146 143 139 132 130 130 130 132 134 132 121 104 93 86 80 75 72 71 71 69 68 73 79 86 87 87 86 85 81 76 67 56 44 32 17 2 345 328 315 306 302
165 161 155 147 142 140 139 139 139 140 141 142 143 144 146 146 144 142 141 141 143 144 146 147 147 147 145 143 142 140 138 136 134 132 130 129 125 114 100 89 85 84 83 83 83 81 78 75 68 67 71 79 82 83 83 83 83 80 73 62 47 28 6 346 328 314 305 300 298
162 158 151 144 141 140 139 139 140 142 143 144 145 147 149 148 146 145 145 145 146 147 147 147 145 144 141 139 137 137 138 139 140 139 136 130 117 106 98 93 89 87 88 92 92 90 87 84 78 73 71 74 75 75 75 76 78 78 75 67 53 25 354 333 317 307 301 297 296
158 153 147 143 141 140 140 140 142 143 144 145 148 150 152 151 150 148 148 149 150 150 149 147 145 143 139 136 135 135 136 139 142 142 139 133 117 107 102 102 99 96 96 98 97 93 89 85 80 75 71 68 68 67 65 63 66 69 70 65 54 23 345 322 310 303 298 297 296
154 149 145 142 142 141 141 141 142 143 144 147 152 154 155 154 152 151 151 152 152 151 149 147 145 142 139 136 136 137 139 142 143 142 138 131 120 113 109 108 107 108 108 107 102 96 90 85 79 75 70 66 66 66 65 60 56 57 59 56 42 7 324 301 294 293 294 296 298
151 147 144 142 143 143 142 141 142 144 147 152 156 157 156 153 153 153 154 154 153 152 150 148 145 142 138 137 141 144 146 146 143 139 131 122 117 116 116 115 115 118 118 115 107 100 93 88 82 77 72 69 67 67 67 65 55 49 45 38 4 316 292 283 282 286 291 296 302
149 145 143 143 144 144 143 142 144 147 152 157 158 157 155 154 154 155 156 155 155 154 153 152 147 142 140 144 147 148 148 148 144 134 122 113 113 115 118 120 122 123 122 118 111 105 99 92 85 79 74 70 69 68 69 69 63 48 27 351 305 287 280 280 283 289 296 305 316
147 144 144 145 145 144 144 145 148 151 155 159 159 158 156 155 156 157 158 158 158 157 155 151 147 146 148 150 149 148 148 148 141 129 119 114 115 117 120 123 127 127 125 122 116 111 104 97 89 82 75 69 68 69 70 71 68 48 345 293 283 280 283 287 299 312 325 339 349
146 144 144 144 144 144 146 148 151 154 158 161 161 160 159 158 160 161 161 159 158 154 150 146 147 149 151 150 147 147 147 144 134 125 120 118 119 121 123 124 126 127 126 125 119 114 108 102 95 88 80 73 68 63 60 63 63 44 271 275 287 297 314 329 344 355 2 8 11
145 143 143 142 143 145 149 152 155 158 161 163 163 162 162 161 162 161 160 156 152 148 146 147 149 150 150 147 145 143 142 137 131 125 121 120 121 121 122 123 125 125 125 125 120 115 111 106 102 97 91 83 73 60 49 54 55 7 319 322 341 354 3 9 13 14 16 18 20
143 142 141 141 144 148 152 156 159 162 164 165 165 163 162 161 160 158 156 153 151 150 150 151 152 152 152 150 145 142 139 135 129 123 119 119 120 121 121 121 122 125 126 125 121 117 114 111 109 108 104 97 86 69 51 50 50 43 31 19 13 13 15 18 19 20 20 21 22
141 141 142 143 147 151 155 158 160 162 163 163 163 162 160 158 157 157 156 155 154 153 152 152 152 152 151 148 144 142 139 133 126 121 119 120 120 120 121 123 125 129 130 126 124 121 118 116 117 115 110 96 84 70 63 56 50 40 31 21 15 12 13 17 20 22 22 21 19
139 141 143 146 151 154 156 157 158 159 160 160 161 160 159 158 158 158 157 155 152 150 148 147 146 144 142 138 137 136 135 131 125 122 121 122 121 122 123 128 130 133 134 130 128 125 123 123 122 118 108 90 78 71 68 64 55 44 33 23 14 11 12 16 19 20 19 17 13
138 139 142 148 153 156 156 157 157 157 158 159 160 159 159 159 158 157 155 152 148 146 145 143 140 137 135 132 132 132 133 133 127 124 123 124 124 125 128 134 135 138 138 135 133 131 130 129 125 115 104 88 79 72 73 71 65 53 41 30 19 14 15 18 19 18 15 10 3
137 138 142 149 154 157 157 157 157 157 159 160 160 159 158 156 155 154 152 149 147 147 146 143 140 140 140 139 137 136 135 135 129 127 126 127 128 131 134 140 140 141 142 141 139 138 135 132 123 114 104 91 85 82 79 78 74 62 50 38 24 18 18 21 20 16 11 2 352
138 139 144 151 155 157 157 158 158 158 159 160 159 158 156 154 154 154 153 151 149 148 147 144 142 142 140 137 134 132 131 132 130 129 129 130 133 136 139 143 143 144 145 147 145 142 139 133 122 115 109 105 106 103 99 91 81 68 57 43 29 21 18 19 18 13 5 355 345
139 142 147 152 154 156 157 158 158 158 158 158 157 155 154 153 155 156 155 152 149 147 146 143 142 140 136 131 129 127 128 129 129 130 131 134 137 139 141 143 145 147 149 151 149 146 140 131 122 116 112 113 118 118 113 105 90 75 61 48 34 22 16 14 13 8 359 348 343
141 145 149 153 154 156 157 158 158 158 157 155 154 154 154 154 153 152 150 146 144 143 141 139 139 136 133 129 128 128 128 128 127 129 131 135 138 140 141 142 146 149 152 153 151 147 140 130 122 117 114 112 118 119 113 107 93 77 63 50 39 26 13 5 5 1 353 343 342
140 145 150 154 156 157 157 156 156 156 155 154 154 153 152 149 147 145 144 141 140 138 136 135 134 133 133 131 131 131 131 129 127 127 128 132 136 139 141 142 148 151 153 153 151 146 139 130 123 119 116 113 113 111 107 103 92 80 66 52 43 31 16 359 356 352 346 339 337